DELTA 1 DEB, 7022

Orbit data source: Space-Track

DELTA 1 DEB, 7022 is space debris in SSO originally from a launch on Tue, 06 Nov 1973 UTC launched from the Air Force Western Test Range (AFWTR). Debris objects in space refer to the collection of defunct objects orbiting the Earth. Examples of debris include non-operational satellites, rocket bodies, and fragments generated from explosions, collisions, or faulty payload assembly.

Loading next visibility...
Identifier
7022, 1973-086N
Orbit
SSO
Country
Flag of USUS
Related business
Manufacturer
Unknown
Mission
Spacecraft
Bus & Motor
Unknown
Mass
Unknown
Launch date (UTC)
1973-11-06 (53 years ago)
Launch vehicle
Unknown
Launch site
Air Force Western Test Range (AFWTR)
Object type
Payload
Rocket body
Debris
Shape & HBR
Unknown shape, 0.2 m
Radar Cross Section
Medium (>0.1 m² and <1 m²)

Expand to show TLE details & history
Last TLE update: 4 hours ago

TLE from 4 hours ago
0 DELTA 1 DEB
1 07022U 73086N   26263.96789954 -.00000060  00000-0 -93030-4 0  9998
2 07022 102.3201 346.6401 0186285  64.9714 107.5042 12.44405344400584
Epoch: 2026-09-20T23:13Z
TLE epoch observation values (Epoch: 2026-09-20T23:13:46.520Z)
Latitude
5.3021°
Longitude
179.49753°
Altitude
1,536.54 km
Speed
7.077 km/s
True Right ascension
11h 11m 11s
True Declination
5° 16' 25"
Sunlit
Object was in daylight at epoch
Visualization orbit readout
Latitude
Unknown
Longitude
Unknown
Altitude
Unknown
Speed
Unknown
Apparent Right ascension
Unknown
Apparent Declination
Unknown
Sunlit
N/A
Visualization observer readout
Local Sidereal Time
19:46:10
Azimuth
Unknown
Elevation
Unknown
Doppler factor
Unknown
Orbital elements
Apogee altitude
1,632.06 km
Perigee altitude
1,339.081 km
Semi-major axis
7,863.708 km
Eccentricity
0.01863
Inclination
102.3201°
RAAN
346.6401°
Arg. of periapsis
64.9714°
True anomaly
109.52544°
Mean anomaly
107.5042°
Eccentric anomaly
108.51628°
Mean motion
3.11245 °/min
Orbital period
115.66 mins
BSTAR
-0.00009303
Loading maneuver chart data...
Computing Atmospheric mass density...
Loading historical data...
Loading historical data...
Loading historical data...
Loading historical data...
Loading historical data...
Loading historical data...
Loading historical data...

Documentation

Showing up to 5 results
|